Regional Weather Roundup
Issued by NWS

Home | Current Version | Previous Version | Graphics & Text | Print | Product List | Glossary On
Versions: 1 2 3 4 5 6 7 8 9 10 11 12 13 14 15 16 17 18 19 20 21 22 23 24 25 26 27 28 29 30 31 32 33 34 35 36 37 38 39 40 41 42 43 44 45 46 47 48 49 50
000
ASUS43 KFSD 251202
RWRSD

WEATHER ROUNDUP FOR SOUTH DAKOTA
NATIONAL WEATHER SERVICE SIOUX FALLS SD
700 AM CDT MON JUL 25 2016

NOTE: "FAIR" INDICATES FEW OR NO CLOUDS BELOW 12,000 FEET WITH NO
SIGNIFICANT WEATHER AND/OR OBSTRUCTIONS TO VISIBILITY.


SDZ001>005-009-010-012>017-251300-
NORTHWEST AND NORTH CENTRAL SOUTH DAKOTA

CITY           SKY/WX    TMP DP  RH WIND       PRES   REMARKS
BUFFALO          N/A     63  50  62 SE3       29.97S
FAITH            N/A     61  51  70 S16       30.04R
MOBRIDGE       CLEAR     68  57  68 SE10      30.02R
$$

SDZ012>016-024>037-041>051-057-063-072>074-251300-
SOUTHWEST AND SOUTH CENTRAL SOUTH DAKOTA

CITY           SKY/WX    TMP DP  RH WIND       PRES   REMARKS
RAPID CTY ARPT CLEAR     65  56  72 S9        30.08S
PIERRE         CLEAR     65  55  70 E3        30.06R
CUSTER         CLEAR     56  49  77 W3        30.23R
ELLSWORTH AFB  CLEAR     65  57  75 S14       30.07R
PHILIP         CLEAR     62  55  77 CALM      30.07R
PINE RIDGE     CLEAR     63  60  90 S7        30.15R
WINNER         FAIR      66  52  60 CALM      30.12R
$$

SDZ004>011-016>023-039-040-251300-
NORTHEAST SOUTH DAKOTA

CITY           SKY/WX    TMP DP  RH WIND       PRES   REMARKS
ABERDEEN       PTCLDY    59  55  87 CALM      30.06R
WATERTOWN      CLEAR     61  58  90 CALM      30.09R
BROOKINGS      CLEAR     62  59  90 CALM      30.11R
SISSETON         N/A     61  59  93 CALM      30.05R
$$

SDZ017-020-022-023-036>040-048>070-251300-
SOUTHEAST SOUTH DAKOTA

CITY           SKY/WX    TMP DP  RH WIND       PRES   REMARKS
SIOUX FALLS    PTCLDY    64  58  80 SW3       30.12R
HURON          CLEAR     62  58  86 S5        30.08R
CHAMBERLAIN    CLEAR     60  60  97 S3        30.11R
MITCHELL       CLEAR     61  59  93 SE3       30.11R
YANKTON        CLEAR     61  57  88 CALM      30.11R
$$

ABBREVIATIONS USED IN REMARKS
   TC - TEMPERATURE IN CELSIUS
  WCI - WIND CHILL INDEX
   HX - HEAT INDEX
  VSB - VISIBILITY





USA.gov is the U.S. government's official web portal to all federal, state and local government web resources and services.